Startseite
Über Mich
AHP4
Galerie
Sehschlangen
Tourenbuch
Bookmarks
Elektronik
Bewertung
Geschichten
[Tagesmessung] [Jahreswerte] [Information]

Messwerte vom 22.05.2022

Die letzten Messwerte von 23:58:47 Uhr:
KategorieMesswert
Temperatur [°C]9
Luftdruck [mBar]998
Sonneneinstrahlung0
Wind [km/h]0 aus Nord
Niederschlag [l/m²]0
rel.Luftfeucht.83.7%
CO2 [ppm]430

Diagramme
Messwerte vom 22.05.2022
Tagesaggregation
KategorieMinimumMaximumSchnittSumme
Temperatur [°C]62814.8354
Luftdruck [mBar]99710031000.4708
Sonneneinstrahlung247140.9896
Wind [km/h]14
rF [%]27.596.668.68
Niederschlag [l/m²]0
CO2 [ppm]403471427.1
Einordnung alsVegetationstag
Sommertag

Messungen an benachbarten Tagen: Zur Jahresaggregation 2022
Tabelle aller Messwerte
UhrzeitTemperatur [°C]Luftdruck [mBar]SonneWind [km/h]RichtungRegen [l/m²]rF [%]CO2 [ppm]
00:01:50 11 1002 0 0 SO 0 88.2 428
00:04:49 11 1002 0 0 SO 0 88.5 428
00:07:47 11 1002 0 0 SO 0 88.7 430
00:10:51 11 1002 0 0 SO 0 89 428
00:13:48 11 1003 0 0 SO 0 88.9 418
00:16:50 11 1002 0 0 SO 0 88.9 421
00:19:48 11 1003 0 0 SO 0 88.9 416
00:22:48 11 1002 0 0 SO 0 89 410
00:25:47 10 1003 0 0 SO 0 89 421
00:28:48 10 1003 0 0 SO 0 89.3 425
00:31:49 10 1002 0 0 SO 0 89.4 433
00:34:48 10 1002 0 0 SO 0 89.4 427
00:37:49 10 1002 0 0 SO 0 89.6 427
00:40:46 10 1002 0 0 SO 0 90 424
00:43:47 10 1002 0 0 SO 0 90 425
00:46:49 10 1002 0 0 SO 0 89.9 426
00:49:48 10 1003 0 0 SO 0 89.8 426
00:52:48 10 1002 0 0 SO 0 89.8 422
00:55:49 10 1002 0 0 SO 0 90.1 430
00:58:46 10 1002 0 0 SO 0 90.3 433
01:01:48 10 1002 0 0 SO 0 90.6 437
01:04:47 10 1002 0 0 SO 0 90.8 433
01:07:49 10 1002 0 0 SO 0 90.8 430
01:10:49 10 1002 0 0 SO 0 90.8 425
01:13:48 10 1003 0 0 SO 0 91 419
01:16:47 10 1002 0 0 SO 0 91.1 425
01:19:49 10 1002 0 0 SO 0 91.1 425
01:22:47 10 1002 0 0 SO 0 91.1 420
01:25:47 10 1002 0 0 SO 0 91.1 422
01:28:49 10 1002 0 0 SO 0 91.2 425
01:31:48 10 1002 0 0 SO 0 91.1 428
01:34:46 10 1002 0 0 SO 0 91.1 427
01:37:50 10 1002 0 0 SO 0 91.3 425
01:40:47 10 1002 0 0 SO 0 91.3 428
01:43:47 10 1002 0 0 SO 0 91.3 430
01:46:47 10 1002 0 0 SO 0 91.3 427
01:49:47 10 1002 0 0 SO 0 91.4 436
01:52:48 9 1002 0 0 SO 0 91.7 439
01:55:46 9 1002 0 0 SO 0 91.9 436
01:58:49 9 1002 0 0 SO 0 92.1 431
02:01:50 9 1002 0 0 SO 0 92.4 426
02:04:46 9 1002 0 0 SO 0 92.9 421
02:07:49 9 1002 0 0 SO 0 92.9 425
02:10:47 9 1002 0 0 SO 0 93 424
02:13:46 9 1002 0 0 SO 0 93 427
02:16:45 9 1002 0 0 S 0 93.2 430
02:19:45 10 1002 0 0 S 0 93.4 430
02:22:44 10 1002 0 0 S 0 93.6 427
02:25:47 10 1002 0 0 S 0 93.7 427
02:28:45 10 1002 0 0 S 0 93.6 428
02:31:45 10 1002 0 0 S 0 93.5 436
02:34:45 10 1002 0 0 S 0 93.6 431
02:37:46 10 1002 0 0 S 0 93.6 433
02:40:45 10 1002 0 0 S 0 93.4 428
02:43:47 10 1002 0 0 S 0 93.2 431
02:46:46 9 1002 0 0 S 0 93.2 439
02:49:48 9 1002 0 0 S 0 93.2 434
02:52:47 9 1002 0 0 S 0 93.1 436
02:55:47 9 1002 0 0 S 0 93.1 436
02:58:48 9 1002 0 0 S 0 93.3 436
03:01:48 9 1002 0 0 S 0 93.4 434
03:04:45 9 1002 0 0 S 0 93.6 439
03:07:46 8 1002 0 0 S 0 93.7 445
03:10:47 8 1002 0 0 S 0 94.1 439
03:13:46 8 1002 0 0 S 0 94.2 440
03:16:47 8 1002 0 0 S 0 94.4 445
03:19:46 8 1002 0 0 S 0 94.5 448
03:22:45 8 1002 0 0 S 0 94.5 451
03:25:48 8 1002 0 0 S 0 94.7 445
03:28:45 8 1002 0 0 S 0 94.9 439
03:31:46 8 1002 0 0 S 0 95 438
03:34:48 8 1002 0 0 S 0 95 450
03:37:46 8 1002 0 0 S 0 95 447
03:40:47 8 1002 0 0 S 0 95.1 444
03:43:46 8 1002 0 0 S 0 95.4 448
03:46:44 8 1002 0 0 S 0 95.5 456
03:49:47 8 1002 0 0 S 0 95.6 454
03:52:47 8 1002 0 0 S 0 96 451
03:55:50 8 1002 0 0 S 0 96 448
03:58:47 8 1002 0 0 S 0 95.8 442
04:01:46 7 1002 0 0 S 0 95.9 442
04:04:47 7 1002 0 0 S 0 95.9 454
04:07:45 7 1002 0 0 S 0 95.9 454
04:10:46 7 1002 0 0 S 0 96.1 453
04:13:45 7 1002 0 0 S 0 96.2 448
04:16:44 7 1002 0 0 S 0 96.2 447
04:19:47 7 1002 0 0 S 0 96.4 454
04:22:46 7 1002 0 0 S 0 96.4 457
04:25:45 7 1002 0 0 S 0 96.4 454
04:28:45 7 1002 0 0 S 0 96.4 448
04:31:46 7 1002 0 0 S 0 96.4 448
04:34:47 7 1002 0 0 S 0 96.6 451
04:37:47 7 1002 0 0 S 0 96.6 448
04:40:44 7 1002 0 0 S 0 96.6 448
04:43:47 7 1002 4 0 S 0 96.6 447
04:46:48 7 1002 6 0 S 0 96.6 446
04:49:47 7 1002 9 0 S 0 96.6 451
04:52:47 7 1002 12 0 S 0 96.6 447
04:55:46 7 1002 17 0 S 0 96.6 452
04:58:46 7 1002 23 0 S 0 96.6 442
05:01:47 7 1002 30 0 S 0 96.6 445
05:04:47 7 1002 38 0 S 0 96.6 442
05:07:46 7 1002 48 0 S 0 96.6 448
05:10:48 7 1002 57 0 S 0 96.6 450
05:13:47 7 1002 67 0 S 0 96.6 459
05:16:47 7 1002 76 0 S 0 96.6 457
05:19:48 6 1002 85 0 S 0 96.6 456
05:22:47 6 1002 93 0 S 0 96.6 442
05:25:47 6 1002 99 0 S 0 96.6 451
05:28:47 6 1002 106 0 S 0 96.6 451
05:31:46 6 1002 112 0 S 0 96.6 454
05:34:46 6 1002 118 0 S 0 96.6 454
05:37:48 6 1002 124 0 S 0 96.6 460
05:40:49 7 1002 130 0 SW 0 96.6 457
05:43:46 7 1002 135 0 N 0 96.6 454
05:46:49 7 1002 141 0 N 0 96.6 455
05:49:46 7 1002 144 0 N 0 96.6 460
05:52:48 7 1002 152 0 O 0 96.6 459
05:55:46 7 1002 158 0 O 0 96.6 466
05:58:47 7 1002 160 0 O 0 96.6 466
06:01:46 7 1002 161 0 O 0 96.6 466
06:04:50 7 1002 166 0 NW 0 96.6 466
06:07:49 7 1002 166 0 NW 0 96.6 459
06:10:50 7 1002 163 0 NW 0 96.6 463
06:13:51 7 1002 163 0 NW 0 96.6 463
06:16:46 7 1002 165 0 NW 0 96.6 471
06:19:50 7 1002 167 0 NW 0 96.6 469
06:22:49 7 1002 169 0 NW 0 96.6 468
06:25:50 7 1002 172 0 NW 0 96.6 463
06:28:47 7 1002 173 0 NW 0 96.6 456
06:31:48 7 1002 175 0 NW 0 96.6 466
06:34:49 7 1002 176 0 NW 0 96.6 469
06:37:48 7 1002 177 0 SO 0 96.6 465
06:40:48 7 1002 179 0 S 0 96.6 460
06:43:48 8 1002 181 0 SW 0 96.6 459
06:46:50 8 1002 182 2 NW 0 96.6 453
06:49:49 8 1002 183 0 SO 0 96.6 463
06:52:47 8 1002 183 0 S 0 96.6 466
06:55:49 8 1002 184 0 SW 0 96.6 468
06:58:47 8 1002 184 0 S 0 96.6 466
07:01:49 9 1002 184 0 SO 0 96.6 459
07:04:48 10 1002 184 0 SO 0 96.6 459
07:07:49 11 1002 184 1 O 0 96.2 457
07:10:49 12 1002 184 3 SW 0 93.8 460
07:13:48 13 1002 184 0 S 0 92 463
07:16:47 15 1002 184 1 SW 0 87.4 459
07:19:47 15 1002 184 0 S 0 86.7 459
07:22:46 15 1002 184 1 S 0 85.2 459
07:25:46 16 1002 184 0 W 0 83.1 456
07:28:48 16 1002 185 1 SW 0 81.1 453
07:31:49 17 1002 186 0 0 77.5 450
07:34:48 17 1002 187 1 SW 0 75.4 452
07:37:48 18 1002 190 0 SO 0 73.9 453
07:40:47 18 1002 192 1 O 0 72.2 454
07:43:33 16 1002 194 1 SW 0 65.2 456
07:46:49 19 1002 195 0 S 0 69.1 439
07:49:49 19 1002 196 1 SW 0 66.5 436
07:52:49 19 1002 196 2 N 0 65.3 436
07:55:46 17 1002 195 3 NO 0 64.1 442
07:58:50 15 1002 194 2 SO 0 69.9 442
08:01:51 14 1002 192 0 NW 0 75.8 443
08:04:48 13 1002 195 1 W 0 78.8 442
08:07:48 13 1002 193 1 W 0 79 443
08:10:47 13 1002 194 0 O 0 80.5 442
08:13:48 13 1002 195 4 NW 0 81.3 443
08:16:51 13 1002 194 4 NW 0 82.1 439
08:19:47 13 1002 195 1 W 0 82.1 433
08:22:49 13 1002 194 0 NW 0 83.5 433
08:25:49 13 1002 194 1 NW 0 83.9 431
08:28:51 13 1002 193 0 NW 0 83.8 436
08:31:47 13 1002 194 1 W 0 84.1 436
08:34:48 13 1002 196 0 W 0 83.3 436
08:37:49 13 1002 196 1 SW 0 82.8 431
08:40:49 13 1002 198 2 SO 0 83.6 430
08:43:48 13 1002 203 0 N 0 83.4 427
08:46:48 13 1002 203 1 SW 0 83.8 424
08:49:50 14 1002 205 0 NO 0 83.7 422
08:52:50 14 1002 206 0 NO 0 83.4 424
08:55:51 14 1002 208 1 SW 0 82.6 422
08:58:49 14 1002 204 0 SW 0 82.7 427
09:01:48 14 1002 208 4 SW 0 82.3 427
09:04:48 14 1002 211 9 SW 0 80.3 430
09:07:48 14 1002 212 0 S 0 80.3 433
09:10:50 14 1002 206 4 W 0 80.3 438
09:13:50 14 1002 201 1 S 0 80.6 436
09:16:52 14 1002 204 0 SW 0 80.8 436
09:19:52 14 1002 215 1 SW 0 80.4 431
09:22:49 14 1002 217 2 SW 0 80.4 433
09:25:47 14 1002 211 1 SW 0 79.6 436
09:28:50 15 1002 205 0 NW 0 77.5 427
09:31:48 15 1002 208 0 W 0 77.3 430
09:34:51 15 1002 215 4 SW 0 77.4 422
09:37:48 15 1002 221 5 NW 0 76.1 427
09:40:48 15 1002 219 1 SW 0 75.3 425
09:43:48 15 1002 207 2 NW 0 74.7 424
09:46:49 15 1002 204 6 SW 0 74.5 430
09:49:47 15 1002 195 5 W 0 73.6 427
09:52:47 15 1002 209 0 S 0 74.5 424
09:55:47 15 1002 211 2 S 0 74.8 424
09:58:48 15 1002 217 0 S 0 75.1 427
10:01:46 15 1001 218 6 W 0 74.9 433
10:04:50 15 1002 208 1 SW 0 74.3 436
10:07:47 15 1002 189 0 W 0 73.8 433
10:10:45 15 1002 205 0 S 0 74.1 427
10:13:48 15 1002 211 3 W 0 74.1 427
10:16:48 15 1002 213 6 S 0 73.9 431
10:19:33 14 1002 212 12 NW 0 66.8 433
10:22:47 15 1002 211 2 W 0 69.1 428
10:25:50 15 1002 199 2 SW 0 69.8 424
10:28:48 15 1002 208 5 W 0 70.4 421
10:31:49 15 1002 219 3 NO 0 68.6 424
10:34:50 15 1002 219 5 SW 0 69.1 427
10:37:47 15 1002 219 3 N 0 69.7 436
10:40:48 16 1002 206 2 O 0 70.8 430
10:43:49 16 1002 197 2 NW 0 70.7 434
10:46:50 16 1002 212 2 S 0 69.4 430
10:49:48 16 1002 217 1 S 0 68.7 430
10:52:49 16 1002 222 3 S 0 67.7 424
10:55:51 17 1002 219 9 NW 0 63.8 424
10:58:49 17 1002 215 10 O 0 63.7 421
11:01:49 16 1002 216 2 NW 0 65.4 427
11:04:47 16 1001 213 0 W 0 65.9 424
11:07:47 16 1002 213 1 O 0 65.5 424
11:10:48 16 1002 217 0 N 0 67.2 428
11:13:45 17 1002 223 5 S 0 67.4 430
11:16:48 17 1002 223 1 W 0 62.8 431
11:19:50 18 1002 224 4 NW 0 62.5 427
11:22:46 18 1001 221 1 NO 0 61.6 431
11:25:50 18 1002 223 2 NW 0 62.9 433
11:28:47 17 1002 219 1 S 0 62.3 433
11:31:50 18 1002 220 1 NW 0 63.3 428
11:34:48 18 1002 225 2 NW 0 63.1 418
11:37:48 18 1002 224 2 S 0 59.8 412
11:40:49 18 1002 220 5 W 0 58 413
11:43:50 18 1002 224 1 SW 0 57.9 422
11:46:48 18 1002 226 2 N 0 59.2 427
11:49:50 18 1002 228 1 NW 0 60.2 428
11:52:49 19 1002 223 0 SO 0 58.7 421
11:55:47 19 1002 217 2 S 0 57.7 427
11:58:50 19 1002 218 3 W 0 58.3 425
12:01:51 19 1002 220 6 NW 0 58.4 428
12:04:49 19 1001 222 4 SW 0 56.7 427
12:07:49 19 1002 221 2 NW 0 56.6 427
12:10:48 20 1001 216 4 NW 0 55.4 431
12:13:48 21 1001 216 2 SO 0 54.9 430
12:16:47 21 1002 215 3 NW 0 53.5 425
12:19:48 21 1002 222 1 W 0 53.7 425
12:22:48 21 1002 224 3 W 0 52.3 422
12:25:48 22 1002 229 4 W 0 47.9 419
12:28:48 22 1001 227 2 SW 0 48 416
12:31:47 22 1001 225 6 W 0 46.9 418
12:34:48 21 1002 223 1 S 0 46.2 415
12:37:49 21 1002 221 5 SW 0 47.6 418
12:40:49 21 1001 217 2 S 0 48 422
12:43:49 21 1001 219 4 S 0 48.9 421
12:46:48 22 1002 221 5 W 0 50.1 416
12:49:47 22 1002 225 5 W 0 47.3 415
12:52:51 22 1001 228 7 NW 0 46.2 421
12:55:48 23 1001 231 3 SW 0 46.9 418
12:58:47 24 1002 229 3 W 0 43 425
13:01:51 22 1001 225 13 NW 0 42 425
13:04:49 20 1001 224 1 NW 0 47.8 415
13:07:48 20 1002 228 3 NW 0 50.4 416
13:10:47 20 1001 226 8 N 0 48 415
13:13:49 20 1002 224 2 N 0 49.7 421
13:16:50 21 1001 224 3 N 0 50 419
13:19:49 22 1001 224 2 SW 0 49 419
13:22:31 20 1001 223 0 NW 0 40 418
13:25:48 24 1000 224 3 SW 0 43.1 419
13:28:47 24 1001 226 3 S 0 42.5 419
13:31:48 24 1001 228 14 N 0 40.3 413
13:34:49 22 1001 230 11 N 0 41.7 416
13:37:50 21 1001 228 12 NW 0 42 413
13:40:32 22 1001 231 6 NW 0 40 415
13:43:49 20 1001 231 9 NW 0 46.9 413
13:46:49 20 1001 231 3 W 0 49.8 409
13:49:50 19 1001 227 6 NW 0 49 408
13:52:46 19 1001 231 6 N 0 48.7 407
13:55:46 20 1001 232 6 N 0 48.9 410
13:58:49 20 1001 233 2 NW 0 47.6 416
14:01:47 20 1001 234 7 N 0 46.6 415
14:04:48 20 1000 233 2 NO 0 46.1 413
14:07:47 21 1001 236 1 NO 0 45.4 412
14:10:48 21 999 237 1 SO 0 47.2 415
14:13:48 23 999 238 2 S 0 42.3 409
14:16:48 24 1001 230 6 NW 0 41.3 404
14:19:48 23 1000 230 9 SO 0 39.5 403
14:22:47 21 999 239 11 O 0 42.5 404
14:25:47 21 1001 231 5 NW 0 43.1 410
14:28:47 20 1000 240 14 W 0 44.9 413
14:31:48 20 1000 241 4 NW 0 45.7 413
14:34:48 20 1000 242 4 N 0 46.1 412
14:37:47 21 1000 242 2 W 0 44.9 410
14:40:48 22 1000 232 6 SW 0 44.1 410
14:43:50 21 1000 229 2 NO 0 42.7 404
14:46:47 20 1000 234 10 N 0 44.1 407
14:49:48 20 1000 240 3 NO 0 44.9 406
14:52:47 20 1000 241 2 SW 0 45.7 406
14:55:47 20 1001 244 3 S 0 47.1 404
14:58:49 21 1000 230 3 S 0 43.8 407
15:01:48 21 999 225 3 S 0 43.9 410
15:04:50 21 1000 225 3 SW 0 44.2 407
15:07:49 21 1000 227 1 NW 0 44.2 410
15:10:51 20 1000 227 0 NW 0 45.3 407
15:13:46 20 999 235 0 NW 0 45.6 403
15:16:47 20 1000 245 9 N 0 45.9 404
15:19:47 21 999 245 11 NW 0 44.4 406
15:22:48 22 999 245 6 SW 0 42.9 407
15:25:48 23 999 244 7 NW 0 42.9 407
15:28:50 22 1000 246 10 NW 0 41 410
15:31:48 22 999 246 8 W 0 40.2 409
15:34:46 21 999 246 7 N 0 41.5 407
15:37:47 21 999 246 5 W 0 43.2 406
15:40:47 21 998 235 2 NO 0 43.6 406
15:43:48 21 999 246 4 SW 0 42.9 403
15:46:49 22 999 246 3 O 0 43 404
15:49:48 22 999 246 8 N 0 42 407
15:52:48 21 999 238 5 S 0 41 421
15:55:49 21 999 246 2 SO 0 42.3 418
15:58:48 22 999 238 5 NW 0 43.5 418
16:01:47 22 999 247 1 N 0 42.4 418
16:04:48 22 999 246 3 W 0 42 419
16:07:48 22 999 247 6 N 0 40.2 419
16:10:49 21 999 246 3 NW 0 39.9 413
16:13:48 21 999 243 1 SW 0 39.8 413
16:16:49 20 998 232 3 NW 0 40.1 410
16:19:48 19 999 237 5 NW 0 39.5 416
16:22:48 20 998 232 3 NW 0 40.7 415
16:25:51 20 999 231 0 SO 0 42 419
16:28:48 20 999 236 1 W 0 42 422
16:31:49 20 999 245 1 SO 0 42.3 425
16:34:48 21 999 246 3 NW 0 43 422
16:37:48 21 998 236 1 NO 0 41.4 413
16:40:45 21 998 232 2 0 40.2 416
16:43:48 21 999 244 1 SO 0 39.5 418
16:46:47 21 999 246 0 O 0 41 415
16:49:47 22 999 247 0 O 0 40.9 413
16:52:48 24 999 247 4 SO 0 41 413
16:55:48 25 998 247 6 SO 0 34.9 407
16:58:50 25 999 247 5 NW 0 30 405
17:01:52 24 999 247 0 SO 0 34.9 410
17:04:46 24 999 247 1 0 35.4 413
17:07:47 25 998 247 3 S 0 35.3 415
17:10:48 25 999 247 4 0 31.6 421
17:13:50 24 999 244 2 SO 0 33.7 424
17:16:48 24 998 233 2 N 0 35.3 419
17:19:49 23 999 243 2 NW 0 35.5 407
17:22:50 23 998 247 2 NW 0 36.8 404
17:25:49 23 999 247 0 NO 0 35.3 404
17:28:48 24 999 247 2 NW 0 34.8 407
17:31:47 24 998 247 2 S 0 33.3 406
17:34:47 25 999 247 1 N 0 33.2 415
17:37:49 25 999 247 0 O 0 33.7 422
17:40:48 26 998 247 2 NW 0 33 418
17:43:48 25 998 247 7 NW 0 30.6 410
17:46:50 24 998 247 6 NW 0 32.3 410
17:49:48 24 998 247 7 N 0 32.3 407
17:52:46 24 998 247 5 N 0 32.6 404
17:55:48 25 998 246 1 SO 0 33.2 406
17:58:46 26 999 247 0 O 0 33.7 410
18:01:50 27 998 247 0 NW 0 32.5 406
18:04:48 28 998 247 0 O 0 29.6 407
18:07:49 27 998 247 2 SO 0 28.6 406
18:10:48 28 998 247 3 NW 0 28.3 408
18:13:48 27 998 247 0 SO 0 28.7 408
18:16:48 27 998 247 1 W 0 27.6 413
18:19:48 27 998 247 1 S 0 27.5 409
18:22:48 27 998 245 0 S 0 28.2 410
18:25:50 26 998 245 0 N 0 28.4 408
18:28:48 26 998 245 1 S 0 28.7 407
18:31:49 26 998 245 0 S 0 29.2 405
18:34:48 25 998 244 1 NO 0 30.6 406
18:37:47 24 998 243 1 S 0 32.1 406
18:40:48 24 998 242 6 NW 0 33.1 407
18:43:47 23 998 246 3 N 0 33.5 404
18:46:48 22 998 241 3 NW 0 34.1 407
18:49:47 21 998 243 0 N 0 35.4 407
18:52:51 21 998 230 0 NO 0 39 404
18:55:48 20 998 238 0 S 0 39.4 407
18:58:48 20 998 222 1 SO 0 39.8 407
19:01:49 20 998 218 2 SW 0 39.7 407
19:04:47 19 999 219 1 N 0 40.9 407
19:07:48 19 998 214 0 SW 0 41.5 407
19:10:46 18 998 212 2 N 0 43.1 409
19:13:48 18 998 211 0 N 0 44 406
19:16:46 18 998 210 0 W 0 44.4 407
19:19:47 18 999 211 0 W 0 45.5 407
19:22:46 17 998 212 0 SO 0 46.2 406
19:25:46 17 998 213 1 O 0 45.8 404
19:28:47 17 998 214 1 O 0 46.2 410
19:31:49 17 998 214 0 NW 0 46.4 407
19:34:49 17 998 213 0 O 0 45.7 409
19:37:50 17 998 212 0 O 0 46 410
19:40:47 17 999 213 0 O 0 46.4 418
19:43:47 17 998 213 0 O 0 47.4 415
19:46:46 17 998 211 0 O 0 47.8 410
19:49:47 17 998 208 0 O 0 48.1 407
19:52:48 17 998 204 0 O 0 48.7 407
19:55:48 17 998 202 0 O 0 49.3 407
19:58:47 17 998 201 0 O 0 49.7 407
20:01:48 17 998 199 0 O 0 49.8 406
20:04:47 16 998 195 0 O 0 49.8 404
20:07:48 16 998 192 0 O 0 49.9 407
20:10:48 16 998 191 0 N 0 50.3 410
20:13:47 16 998 192 0 N 0 50.6 413
20:16:49 16 998 191 0 O 0 51.7 405
20:19:47 16 998 189 0 O 0 52.5 410
20:22:49 16 998 186 0 N 0 52.9 404
20:25:47 16 998 184 0 O 0 53.8 409
20:28:50 16 998 182 0 O 0 54.6 403
20:31:48 16 998 180 0 O 0 54.9 416
20:34:46 15 998 176 0 O 0 55.4 415
20:37:47 15 998 170 0 O 0 56.2 415
20:40:47 15 998 163 0 O 0 56.7 415
20:43:48 15 998 158 0 O 0 57.7 424
20:46:51 15 998 152 0 O 0 58.4 418
20:49:48 15 998 144 0 O 0 58.5 421
20:52:47 15 998 135 0 O 0 59.8 418
20:55:47 15 998 126 0 O 0 60.7 421
20:58:49 14 998 116 0 O 0 61.3 415
21:01:48 14 998 106 0 O 0 61.8 410
21:04:45 14 998 96 0 O 0 63.1 407
21:07:46 14 998 87 0 O 0 65.3 412
21:10:46 14 998 79 0 O 0 66 415
21:13:46 14 998 70 0 O 0 66.6 413
21:16:45 13 998 61 0 O 0 66.7 418
21:19:47 13 998 52 0 O 0 67 422
21:22:46 13 998 44 0 O 0 68.2 416
21:25:47 13 998 37 0 O 0 69.1 421
21:28:47 13 998 29 0 O 0 69.8 424
21:31:47 12 998 23 0 O 0 69.3 425
21:34:47 12 998 17 0 O 0 69.4 428
21:37:45 12 998 12 0 O 0 69.7 427
21:40:47 12 998 9 1 SO 0 69.8 425
21:43:48 12 998 6 0 SO 0 70.7 424
21:46:47 12 998 4 0 SO 0 71.2 419
21:49:48 12 998 3 0 SO 0 71.2 424
21:52:46 12 998 0 0 N 0 71.6 427
21:55:46 12 998 0 0 NO 0 72.2 418
21:58:46 12 998 0 1 NO 0 73.6 410
22:01:46 12 998 0 0 NO 0 74.1 407
22:04:45 12 998 0 0 NO 0 74.1 413
22:07:46 11 998 0 0 NO 0 74.6 421
22:10:47 11 998 0 0 NO 0 75.3 430
22:13:47 11 998 0 0 NO 0 75.5 431
22:16:47 11 998 0 0 NO 0 76 425
22:19:48 11 998 0 0 NO 0 76.2 424
22:22:47 11 998 0 6 SO 0 77 422
22:25:46 11 998 0 1 N 0 78.2 422
22:28:45 11 998 0 0 O 0 79.4 424
22:31:48 11 998 0 0 N 0 79 428
22:34:46 11 998 0 0 NO 0 79 427
22:37:46 11 998 0 0 NO 0 79.2 419
22:40:48 10 998 0 0 NO 0 78.4 418
22:43:47 10 998 0 0 NO 0 78.5 422
22:46:46 10 998 0 0 S 0 78.5 427
22:49:46 10 998 0 0 NO 0 78.4 430
22:52:48 10 998 0 0 NO 0 79.6 430
22:55:48 10 998 0 0 NO 0 80 428
22:58:46 10 998 0 0 NO 0 80 434
23:01:47 10 998 0 0 NO 0 80.3 437
23:04:48 10 998 0 0 NO 0 80.8 427
23:07:48 10 998 0 0 NO 0 81.2 427
23:10:45 10 998 0 1 SO 0 81.1 427
23:13:47 10 998 0 0 NW 0 81.2 433
23:16:48 10 998 0 0 NO 0 81.7 431
23:19:46 10 998 0 0 NO 0 81.9 433
23:22:46 10 998 0 0 NO 0 81.9 434
23:25:46 10 998 0 0 N 0 82.1 434
23:28:47 10 997 0 0 N 0 82.4 437
23:31:47 10 997 0 0 N 0 82.4 433
23:34:47 10 998 0 0 N 0 82.6 429
23:37:47 9 998 0 0 N 0 82.6 427
23:40:47 9 998 0 0 N 0 82.3 428
23:43:46 9 997 0 0 N 0 82.5 433
23:46:47 9 998 0 0 SO 0 82.5 439
23:49:47 9 998 0 0 SO 0 82.1 436
23:52:47 9 998 0 0 SO 0 82.2 427
23:55:48 9 998 0 0 SO 0 83.2 427
23:58:47 9 998 0 0 N 0 83.7 430

Letzte Änderung : 04-Jan-2022
Copyright Jens Köhler, Wolfsburg, Obere Dorfstraße 10d